TimeCST,TemperatureF,Dew PointF,Humidity,Sea Level PressureIn,VisibilityMPH,Wind Direction,Wind SpeedMPH,Gust SpeedMPH,PrecipitationIn,Events,Conditions,WindDirDegrees,DateUTC
12:00 AM,76,75,95,29.94,12,North,9.2,,,,Mostly Cloudy,0,2013-11-14 06:00:00
3:00 AM,75,74,98,29.90,12,North,6.9,,,,Mostly Cloudy,0,2013-11-14 09:00:00
5:00 AM,75.2,75.2,100,29.92,6.2,North,6.9,-,N/A,,Mostly Cloudy,360,2013-11-14 11:00:00
6:00 AM,75,74,95,29.93,12,North,4.6,,,,Mostly Cloudy,0,2013-11-14 12:00:00
6:00 AM,75.2,73.4,94,29.92,6.2,North,4.6,-,N/A,,Mostly Cloudy,360,2013-11-14 12:00:00
7:00 AM,75.2,73.4,94,29.95,6.2,NNW,9.2,-,N/A,,Mostly Cloudy,330,2013-11-14 13:00:00
8:00 AM,77.0,73.4,89,29.95,6.2,NNW,5.8,-,N/A,Rain,Light Rain Showers,330,2013-11-14 14:00:00
9:00 AM,78,75,87,29.97,11,NNW,5.8,,,,Partly Cloudy,330,2013-11-14 15:00:00
9:00 AM,77.0,75.2,94,29.97,6.2,NNW,5.8,-,N/A,,Mostly Cloudy,330,2013-11-14 15:00:00
10:00 AM,78.8,77.0,94,29.98,6.2,NNW,4.6,-,N/A,Rain,Light Rain,330,2013-11-14 16:00:00
11:00 AM,77.0,75.2,94,29.95,6.2,NW,4.6,-,N/A,,Mostly Cloudy,310,2013-11-14 17:00:00
11:36 AM,77.0,75.2,94,29.95,5.0,West,3.5,-,N/A,Rain,Light Rain,260,2013-11-14 17:36:00
11:40 AM,77.0,75.2,94,29.95,3.1,Calm,Calm,-,N/A,Rain,Rain,0,2013-11-14 17:40:00
11:43 AM,77.0,75.2,94,29.95,1.2,SE,2.3,-,N/A,Rain,Heavy Rain,140,2013-11-14 17:43:00
11:46 AM,77.0,75.2,94,29.95,-9999.0,ESE,3.5,-,N/A,Rain,Heavy Rain Showers,120,2013-11-14 17:46:00
12:00 PM,77,75,93,29.94,0,Calm,Calm,,,Rain,Light Rain Showers,,2013-11-14 18:00:00
12:00 PM,77.0,75.2,94,2.99,0.6,Calm,Calm,-,N/A,Rain,Heavy Rain Showers,0,2013-11-14 18:00:00
12:11 PM,77.0,75.2,94,2.99,5.0,NNE,3.5,-,N/A,Rain,Light Rain Showers,20,2013-11-14 18:11:00
1:00 PM,77.0,75.2,94,2.99,6.2,Calm,Calm,-,N/A,Rain,Light Rain Showers,0,2013-11-14 19:00:00
2:00 PM,77.0,75.2,94,29.89,6.2,North,4.6,-,N/A,,Mostly Cloudy,350,2013-11-14 20:00:00
3:00 PM,77,75,91,29.87,12,NNE,2.3,,,,Partly Cloudy,20,2013-11-14 21:00:00
3:00 PM,77.0,75.2,94,29.86,6.2,NNE,2.3,-,N/A,,Mostly Cloudy,20,2013-11-14 21:00:00
4:00 PM,78.8,75.2,89,29.87,0.9,NNW,3.5,-,N/A,Rain,Heavy Rain Showers,340,2013-11-14 22:00:00
4:20 PM,78.8,75.2,89,-9999,3.1,ENE,6.9,-,N/A,Rain,Light Rain Showers,60,2013-11-14 22:20:00
5:00 PM,75.2,73.4,94,29.88,5.6,North,2.3,-,N/A,Rain,Light Rain,350,2013-11-14 23:00:00
6:00 PM,76,75,95,29.90,4,NNE,3.5,,,Rain,Light Rain,20,2013-11-15 00:00:00
6:00 PM,77.0,75.2,94,29.89,4.3,NNE,3.5,-,N/A,Rain,Light Rain,20,2013-11-15 00:00:00
9:00 PM,76,74,91,29.94,6,NNW,3.5,,,Rain,Light Rain,330,2013-11-15 03:00:00